Location: East Arcadia
(34.1056°N, 118.0176°W)
Time: 08:02:43
(UTC+00:00)

DELTA 2 R/B (1) - Pass Details

Date: 09 December 2023
Orbit: 788 x 802 km, 39.6° (Epoch: 24 February)

Event Time Altitude Azimuth Distance (km) Brightness Sun altitude
Rises 03:42:30 0° 269° (W) 3,291 7.8 -36.4°
Reaches altitude 10° 03:45:03 10° 274° (W) 2,360 6.8 -37.0°
Enters shadow 03:47:34 26° 286° (WNW) 1,512 5.4 -37.5°
